EHI
0 0 0 0 0 0 0 0 0 0 1 1 1 0 0 0 0 1 2 5 11 15 15 13 11 9 8 6 2 1 1 1 2 1 0 0 1 1 0 0 0 0 0
0 0 0 0 0 0 0 0 0 0 0 0 0 0 0 0 0 0 1 3 6 8 10 10 10 9 7 4 2 3 2 2 3 2 1 1 2 2 1 1 0 0 0
0 0 0 0 0 0 0 0 0 0 0 0 0 0 0 0 0 0 1 1 1 2 3 5 7 7 5 2 2 3 3 3 4 4 3 3 2 3 3 2 1 0 0
0 0 0 0 0 0 0 0 0 0 0 0 0 0 0 0 0 0 0 0 0 0 0 1 2 4 3 2 2 3 4 5 5 6 6 5 4 3 3 3 2 1 0
0 0 0 0 0 0 0 0 0 0 0 0 0 0 0 0 0 0 0 0 0 0 0 0 0 1 1 2 3 4 5 7 8 8 8 7 5 4 3 3 2 1 0
0 0 0 0 0 0 0 0 0 0 0 0 0 0 0 0 0 0 0 0 0 0 0 0 0 0 1 2 3 4 5 6 8 9 8 8 7 5 3 1 1 0 0
0 0 0 0 0 0 0 0 0 0 0 0 0 0 0 0 0 0 0 0 0 0 0 0 0 0 0 1 1 2 3 4 5 7 9 9 9 7 3 1 0 0 0
0 0 0 0 0 0 0 0 0 0 0 0 0 0 0 0 0 0 0 0 0 0 0 0 0 0 0 1 0 0 1 2 3 5 8 10 9 7 3 1 0 0 0
0 0 0 0 0 0 0 0 0 0 0 0 0 0 0 0 0 0 0 0 0 0 0 0 0 0 0 0 0 0 1 1 1 3 6 8 7 4 2 1 0 0 0
0 0 0 0 0 0 0 0 0 0 0 0 0 0 0 0 0 0 0 0 0 0 0 0 0 0 0 0 0 0 1 1 0 1 4 6 5 3 1 1 1 1 1
0 0 0 0 0 0 0 0 0 0 0 0 0 0 0 0 0 0 0 0 0 0 0 0 0 0 0 0 0 0 0 0 0 0 1 3 4 4 2 1 1 1 2
0 0 0 0 0 0 0 0 0 0 0 0 0 0 0 0 0 0 0 0 0 0 0 0 0 0 0 0 0 0 0 0 0 0 0 0 2 4 3 1 1 1 1
0 0 0 0 0 0 0 0 0 0 0 0 0 0 0 0 0 0 0 0 0 0 0 0 0 0 0 0 0 0 0 0 0 0 0 0 1 3 3 2 2 2 2
0 0 0 0 0 0 0 0 0 0 0 0 0 0 0 0 0 0 0 0 0 0 0 0 0 0 0 0 0 0 0 0 0 0 0 0 0 1 1 1 2 2 2
0 0 0 0 0 0 0 0 0 0 0 0 0 0 0 0 0 0 0 0 0 0 0 0 0 0 0 0 0 0 0 0 0 0 0 0 0 0 0 0 1 1 1
0 0 0 0 0 0 0 0 0 0 0 0 0 0 0 0 0 0 0 0 0 0 0 0 0 0 0 0 0 0 0 0 0 0 0 0 0 0 0 0 0 0 0
0 0 0 0 0 0 0 0 0 0 0 0 0 0 0 0 0 0 0 0 0 0 0 0 0 0 0 0 0 0 0 0 0 0 0 0 0 0 0 0 0 0 0
0 0 0 0 0 0 0 0 0 0 0 0 0 0 0 0 0 0 0 0 0 0 0 0 0 0 0 0 0 0 0 0 0 0 0 0 0 0 0 0 0 0 0
0 0 0 0 0 0 0 0 0 0 0 0 0 0 0 0 0 0 0 0 0 0 0 0 0 0 0 0 0 0 0 0 0 0 0 0 0 0 0 0 0 0 0
0 0 0 0 0 0 0 0 0 0 0 0 0 0 0 0 0 0 0 0 0 0 0 0 0 0 0 0 0 0 0 0 0 0 0 0 0 0 0 0 0 0 0
0 0 0 0 0 0 0 0 0 0 0 0 0 0 0 0 0 0 0 0 0 0 0 0 0 0 0 0 0 0 0 0 0 0 0 0 0 0 0 0 0 0 0
0 0 0 0 0 0 0 0 0 0 0 0 0 0 0 0 0 0 0 0 0 0 0 0 0 0 0 0 0 0 0 0 0 0 0 0 0 0 0 0 0 0 0
0 0 0 0 0 0 0 0 0 0 0 0 0 0 0 0 0 0 0 0 0 0 0 0 0 0 0 0 0 0 0 0 0 0 0 0 0 0 0 0 0 0 0
0 0 0 0 0 0 0 0 0 0 0 0 0 0 0 0 0 0 0 0 0 0 0 0 0 0 0 0 0 0 0 0 0 0 0 0 0 0 0 0 0 0 0
0 0 0 0 0 0 0 0 0 0 0 0 0 0 0 0 0 0 0 0 0 0 0 0 0 0 0 0 0 0 0 0 0 0 0 0 0 0 0 0 0 0 0
0 0 0 0 0 0 0 0 0 0 0 0 0 0 0 0 0 0 0 0 0 0 0 0 0 0 0 0 0 0 0 0 0 0 0 0 0 0 0 0 0 0 0
Wind_Speed
3 3 2 2 1 1 0 0 0 1 1 2 2 2 2 3 2 3 2 9 12 14 15 16 17 17 17 16 16 16 15 15 14 14 14 14 15 14 14 13 12 11 11
3 3 3 3 2 1 1 0 0 0 0 0 1 1 2 2 2 2 3 6 13 14 15 16 16 17 17 17 17 17 16 16 15 14 14 14 15 15 15 14 13 13 11
4 3 3 3 3 2 2 2 2 2 2 1 1 2 1 2 2 3 3 4 6 14 17 16 16 16 17 18 18 18 17 16 16 15 15 15 15 15 15 15 14 14 12
5 4 4 3 3 3 3 2 2 2 2 2 2 2 2 2 3 3 3 4 4 6 11 16 16 16 17 18 19 19 18 17 17 17 16 16 16 16 15 15 15 14 14
5 4 3 3 4 4 3 3 3 2 2 3 2 2 2 2 3 4 4 4 5 5 5 10 15 16 18 19 19 19 19 19 18 18 18 18 18 17 16 16 16 16 15
4 4 4 4 5 4 4 3 3 3 2 2 3 3 3 3 3 3 5 4 4 5 6 6 6 10 17 17 17 18 19 20 19 20 20 20 19 18 17 17 17 17 16
4 4 3 4 4 4 4 4 3 4 3 3 3 4 4 3 2 2 2 2 3 3 4 5 4 4 5 13 16 17 19 20 20 20 20 20 20 19 19 19 18 18 17
3 4 4 3 3 3 5 5 4 2 3 3 2 2 4 5 4 3 3 2 2 2 2 4 4 5 4 3 7 15 17 19 20 20 21 21 21 20 20 20 19 19 19
3 3 4 3 3 3 3 3 3 3 2 3 2 2 2 2 4 4 4 4 5 3 2 2 2 3 4 4 4 8 13 14 17 19 19 20 20 20 21 21 21 21 20
2 4 4 4 3 2 2 2 2 2 2 2 2 2 1 2 0 4 4 4 5 4 4 3 2 2 3 3 4 7 10 12 15 17 18 19 19 20 21 22 23 23 22
2 3 4 4 3 2 2 2 2 2 1 1 0 1 2 2 2 1 3 5 5 4 4 4 3 3 2 2 3 6 9 9 11 13 15 17 19 20 21 23 25 25 24
1 3 4 4 3 3 2 2 1 1 0 0 0 0 1 0 0 0 1 3 4 4 4 3 3 3 3 2 4 6 7 8 9 9 11 13 15 18 21 23 25 26 26
1 3 4 4 3 3 3 2 2 1 1 1 2 1 2 2 2 2 2 2 3 4 4 3 3 3 3 2 3 6 6 7 8 9 10 10 11 13 17 20 23 24 25
3 4 4 5 4 4 4 3 2 2 2 2 3 2 2 2 2 2 3 2 2 3 3 5 4 3 3 3 4 6 4 7 7 9 10 10 11 12 14 16 19 21 23
3 5 5 5 5 5 4 4 3 3 3 3 3 3 3 3 2 2 3 3 3 2 3 4 3 4 3 3 5 3 4 7 9 9 11 11 12 12 13 14 16 18 19
4 5 5 5 5 5 5 4 4 4 4 4 3 4 4 3 3 3 3 3 3 4 3 3 3 4 4 5 6 4 5 9 10 10 10 11 12 13 13 14 15 16 18
5 5 5 5 5 5 5 5 5 5 5 5 5 5 6 5 4 3 3 3 3 3 4 4 3 3 4 5 6 4 5 5 5 11 11 12 12 13 14 14 15 16 17
6 6 6 6 6 6 6 6 6 6 6 6 6 6 6 5 5 4 3 4 4 4 4 5 3 3 4 5 5 6 5 5 5 9 12 13 13 14 14 14 15 16 16
6 6 6 6 7 6 6 6 7 6 6 7 6 6 6 5 6 4 5 5 4 4 4 4 4 3 3 3 4 5 5 4 5 7 10 11 12 13 13 14 15 15 16
7 7 7 7 7 6 6 6 6 6 6 6 6 6 6 6 7 6 5 6 5 4 4 4 4 3 3 4 2 3 4 3 4 5 6 6 8 10 12 13 14 15 15
8 7 7 7 6 6 6 7 6 6 6 6 5 6 6 9 10 8 6 6 6 5 4 4 4 3 3 3 3 2 3 4 4 3 3 3 3 4 5 9 12 14 15
7 7 7 7 7 6 9 11 8 6 6 6 6 6 7 8 10 12 12 11 10 8 7 5 5 5 6 5 4 3 3 2 4 3 2 4 3 5 5 5 9 13 14
8 7 8 7 8 9 11 12 13 7 7 7 7 6 6 7 8 6 8 10 10 13 13 8 7 8 7 6 5 4 4 4 5 4 2 5 3 5 5 6 11 12 13
7 7 8 8 7 9 12 13 13 8 7 7 8 8 7 8 8 8 7 7 7 8 9 8 8 9 9 7 7 6 6 5 5 4 3 4 4 5 5 5 10 12 12
7 7 6 7 8 9 12 13 12 5 6 8 8 8 8 8 12 13 8 8 8 8 10 13 13 13 13 13 9 4 4 3 5 4 3 4 4 4 4 5 6 10 11
8 7 7 7 8 8 11 14 13 5 7 7 7 8 12 12 13 12 8 8 9 9 7 6 7 8 8 9 11 8 6 6 5 5 4 4 3 2 4 3 3 3 4
Wind_Direction
50 34 26 27 12 4 4 328 232 233 225 232 236 233 239 244 217 200 213 205 202 205 202 199 196 195 194 193 192 191 191 190 185 182 179 176 175 174 173 171 170 167 165
59 41 29 22 11 355 356 14 8 311 305 292 288 270 250 254 245 210 201 204 205 210 211 209 205 203 201 200 199 197 197 197 192 190 187 183 181 180 180 178 177 176 174
64 51 34 19 1 6 25 32 29 39 28 17 343 312 281 264 259 238 209 204 208 217 215 213 211 210 208 207 206 204 201 200 197 195 193 190 187 185 185 184 183 182 181
69 53 40 19 10 24 32 41 41 43 30 20 345 316 308 295 279 262 231 215 207 218 222 221 217 215 215 213 212 210 206 203 201 199 197 195 194 192 190 189 189 187 186
69 63 51 27 28 36 31 35 46 48 24 355 321 314 319 300 282 277 261 234 215 214 215 225 225 221 220 221 219 217 213 209 205 204 202 201 200 198 196 195 194 192 191
74 70 61 40 39 40 27 26 34 30 24 347 333 337 309 295 291 274 266 256 230 220 216 220 224 230 228 226 224 222 220 216 211 209 208 206 204 202 200 199 198 197 196
89 83 71 50 45 46 31 24 30 25 9 4 22 347 332 331 329 309 290 273 260 244 219 214 213 215 228 230 228 227 227 224 218 215 212 210 208 205 203 203 202 201 201
119 112 95 76 57 49 36 35 44 38 7 23 46 31 352 344 341 353 358 7 327 290 240 219 208 210 216 216 226 230 230 230 226 222 218 214 212 208 206 206 205 205 204
146 129 121 105 77 72 59 53 59 64 23 360 39 90 77 313 313 327 352 9 1 352 321 293 240 225 220 215 223 235 234 231 230 229 225 220 216 212 208 208 208 208 208
175 154 142 126 107 93 81 67 76 76 73 20 2 33 145 191 289 323 327 346 353 357 349 340 317 282 245 221 219 226 237 238 236 235 232 227 221 216 212 211 212 211 211
219 177 158 145 137 124 127 103 81 64 91 110 22 358 10 25 72 113 315 329 336 334 335 325 319 307 278 237 224 230 234 238 239 238 236 234 228 222 217 216 217 216 215
241 182 165 159 162 159 162 165 155 118 156 190 203 166 139 113 336 105 271 302 309 306 316 321 327 316 293 260 247 241 235 236 240 241 241 241 237 231 226 223 222 221 219
188 188 170 176 183 191 194 188 192 233 244 246 245 234 212 209 198 184 207 270 295 300 317 319 318 317 313 306 282 272 256 246 243 241 242 244 245 239 234 229 226 225 223
203 194 186 192 201 205 207 198 202 224 217 231 247 239 238 242 215 196 196 209 305 313 317 298 308 313 320 310 294 288 272 257 251 246 243 243 245 244 241 236 231 227 223
196 186 189 197 208 212 215 208 215 230 230 234 240 241 235 243 234 223 200 181 182 262 287 284 298 309 313 301 297 291 271 262 259 253 245 242 242 244 243 239 233 229 224
199 192 200 205 214 219 219 212 221 230 231 240 235 239 243 242 245 237 222 207 186 193 243 263 263 280 302 308 300 288 274 274 266 260 253 246 244 244 244 242 237 231 226
211 209 210 212 217 222 221 215 224 228 230 242 246 238 243 241 238 241 235 228 219 196 238 267 258 277 293 298 304 295 280 270 267 263 259 253 248 246 245 243 239 234 228
216 215 215 216 221 222 219 215 226 227 223 231 238 238 245 244 237 237 233 234 233 220 222 262 275 280 280 285 288 293 287 279 267 268 262 256 251 248 245 243 240 235 231
216 218 213 216 221 222 219 219 220 224 224 226 229 230 237 235 241 240 236 236 236 239 218 234 261 263 273 283 299 299 294 289 285 278 267 259 254 250 247 244 240 236 232
213 216 216 218 220 222 220 220 219 222 225 229 229 228 231 227 232 236 239 236 234 238 234 238 255 264 268 278 290 297 308 308 300 295 283 275 266 260 253 247 240 236 231
216 214 216 222 223 219 219 215 215 216 217 228 234 234 234 238 238 234 234 229 226 226 228 234 249 263 268 277 270 265 283 298 296 280 301 298 290 277 265 253 245 238 232
219 216 217 218 220 224 220 212 203 210 213 220 232 239 246 252 254 254 253 246 226 220 223 225 236 241 253 248 248 251 264 292 296 287 311 295 285 275 266 251 247 242 236
216 218 221 218 222 228 227 223 219 209 214 220 225 233 248 251 252 252 263 270 259 243 227 218 227 237 243 237 234 252 246 241 247 258 282 281 276 273 268 260 250 246 239
211 218 221 220 223 230 227 227 229 222 222 227 226 226 233 249 253 246 252 261 258 254 241 229 225 234 235 233 223 232 242 251 257 258 230 261 269 266 268 265 256 246 242
215 216 214 217 225 236 230 231 228 215 225 234 233 231 230 241 251 250 247 252 259 260 254 240 231 235 239 241 232 227 241 247 267 267 223 230 256 264 264 260 256 247 241
218 218 224 221 224 237 236 235 225 211 226 237 238 237 236 240 250 252 239 237 248 255 252 254 245 248 247 249 243 222 219 228 243 261 237 214 242 247 278 266 255 251 245